Time,TemperatureF,DewpointF,PressureIn,WindDirection,WindDirectionDegrees,WindSpeedMPH,WindSpeedGustMPH,Humidity,HourlyPrecipIn,Conditions,Clouds,dailyrainin,SoftwareType,DateUTC
2013-01-28 00:04:00,57.0,51.6,29.81,North,1,0.0,0.0,82,0.00,CLR,OVC,0.00,WeatherDisplay:10.37,2013-01-28 06:04:00,
2013-01-28 00:09:00,57.2,51.8,29.81,North,1,0.0,0.0,82,0.00,CLR,OVC,0.00,WeatherDisplay:10.37,2013-01-28 06:09:00,
2013-01-28 00:14:00,57.2,51.8,29.81,North,1,0.0,0.0,82,0.00,CLR,OVC,0.00,WeatherDisplay:10.37,2013-01-28 06:14:00,
2013-01-28 00:19:00,57.2,51.8,29.81,North,1,0.0,0.0,82,0.00,CLR,OVC,0.00,WeatherDisplay:10.37,2013-01-28 06:19:00,
2013-01-28 00:24:00,57.2,51.8,29.81,North,1,0.0,0.0,82,0.00,CLR,OVC,0.00,WeatherDisplay:10.37,2013-01-28 06:24:00,
2013-01-28 00:29:00,57.2,51.8,29.81,North,1,0.0,0.0,82,0.00,CLR,OVC,0.00,WeatherDisplay:10.37,2013-01-28 06:29:00,
2013-01-28 00:34:00,57.4,51.9,29.81,North,1,0.0,0.0,82,0.00,CLR,OVC,0.00,WeatherDisplay:10.37,2013-01-28 06:34:00,
2013-01-28 00:39:00,57.4,51.9,29.81,North,1,0.0,0.0,82,0.00,CLR,OVC,0.00,WeatherDisplay:10.37,2013-01-28 06:39:00,
2013-01-28 00:44:00,57.4,51.9,29.81,North,1,0.0,0.0,82,0.00,CLR,OVC,0.00,WeatherDisplay:10.37,2013-01-28 06:44:00,
2013-01-28 00:49:00,57.4,51.9,29.81,North,1,0.0,0.0,82,0.00,CLR,OVC,0.00,WeatherDisplay:10.37,2013-01-28 06:49:00,
2013-01-28 00:54:00,57.4,51.9,29.81,North,1,0.0,0.0,82,0.00,CLR,OVC,0.00,WeatherDisplay:10.37,2013-01-28 06:54:00,
2013-01-28 00:59:00,57.4,51.9,29.81,North,1,0.0,0.0,82,0.00,CLR,OVC,0.00,WeatherDisplay:10.37,2013-01-28 06:59:00,
2013-01-28 01:04:00,57.6,52.1,29.81,North,1,0.0,0.0,82,0.00,CLR,OVC,0.00,WeatherDisplay:10.37,2013-01-28 07:04:00,
2013-01-28 01:09:00,57.4,51.9,29.81,North,1,0.0,0.0,82,0.00,CLR,OVC,0.00,WeatherDisplay:10.37,2013-01-28 07:09:00,
2013-01-28 01:14:00,57.4,51.9,29.81,North,1,0.0,0.0,82,0.00,CLR,OVC,0.00,WeatherDisplay:10.37,2013-01-28 07:14:00,
2013-01-28 01:19:00,57.4,51.9,29.81,North,1,0.0,0.0,82,0.00,CLR,OVC,0.00,WeatherDisplay:10.37,2013-01-28 07:19:00,
2013-01-28 01:24:00,57.4,51.9,29.81,North,1,0.0,0.0,82,0.00,CLR,OVC,0.00,WeatherDisplay:10.37,2013-01-28 07:24:00,
2013-01-28 01:29:00,57.4,51.9,29.81,North,1,0.0,0.0,82,0.00,CLR,OVC,0.00,WeatherDisplay:10.37,2013-01-28 07:29:00,
2013-01-28 01:34:00,57.4,51.9,29.81,North,1,0.0,0.0,82,0.00,CLR,OVC,0.00,WeatherDisplay:10.37,2013-01-28 07:34:00,
2013-01-28 01:39:00,57.4,51.9,29.82,North,1,0.0,0.0,82,0.00,CLR,OVC,0.00,WeatherDisplay:10.37,2013-01-28 07:39:00,
2013-01-28 01:44:00,57.4,51.9,29.81,North,1,0.0,0.0,82,0.00,CLR,OVC,0.00,WeatherDisplay:10.37,2013-01-28 07:44:00,
2013-01-28 01:49:00,57.4,51.9,29.81,North,1,0.0,0.0,82,0.00,CLR,OVC,0.00,WeatherDisplay:10.37,2013-01-28 07:49:00,
2013-01-28 01:54:00,57.4,51.9,29.81,North,1,0.0,0.0,82,0.00,CLR,OVC,0.00,WeatherDisplay:10.37,2013-01-28 07:54:00,
2013-01-28 01:59:00,57.2,51.8,29.81,North,1,0.0,0.0,82,0.00,CLR,OVC,0.00,WeatherDisplay:10.37,2013-01-28 07:59:00,
2013-01-28 02:04:00,57.2,51.8,29.81,North,1,0.0,0.0,82,0.00,CLR,OVC,0.00,WeatherDisplay:10.37,2013-01-28 08:04:00,
2013-01-28 02:09:00,57.2,52.1,29.81,North,1,0.0,0.0,83,0.00,CLR,OVC,0.00,WeatherDisplay:10.37,2013-01-28 08:09:00,
2013-01-28 02:14:00,57.2,52.1,29.81,North,1,0.0,0.0,83,0.00,CLR,OVC,0.00,WeatherDisplay:10.37,2013-01-28 08:14:00,
2013-01-28 02:19:00,57.2,52.1,29.81,North,1,0.0,0.0,83,0.00,CLR,OVC,0.00,WeatherDisplay:10.37,2013-01-28 08:19:00,
2013-01-28 02:24:00,57.2,52.1,29.81,North,1,0.0,0.0,83,0.00,CLR,OVC,0.00,WeatherDisplay:10.37,2013-01-28 08:24:00,
2013-01-28 02:29:00,57.2,52.1,29.81,North,1,0.0,0.0,83,0.00,CLR,OVC,0.00,WeatherDisplay:10.37,2013-01-28 08:29:00,
2013-01-28 02:34:00,57.2,52.1,29.81,North,1,0.0,0.0,83,0.00,CLR,OVC,0.00,WeatherDisplay:10.37,2013-01-28 08:34:00,
2013-01-28 02:39:00,57.0,51.9,29.81,North,1,0.0,0.0,83,0.00,CLR,OVC,0.00,WeatherDisplay:10.37,2013-01-28 08:39:00,
2013-01-28 02:44:00,57.0,51.9,29.81,North,1,0.0,0.0,83,0.00,CLR,OVC,0.00,WeatherDisplay:10.37,2013-01-28 08:44:00,
2013-01-28 02:49:00,57.0,51.9,29.81,North,1,0.0,0.0,83,0.00,CLR,OVC,0.00,WeatherDisplay:10.37,2013-01-28 08:49:00,
2013-01-28 02:54:00,57.2,52.1,29.81,North,1,0.0,0.0,83,0.00,CLR,OVC,0.00,WeatherDisplay:10.37,2013-01-28 08:54:00,
2013-01-28 02:59:00,57.2,52.1,29.81,North,1,0.0,0.0,83,0.00,CLR,OVC,0.00,WeatherDisplay:10.37,2013-01-28 08:59:00,
2013-01-28 03:04:00,57.4,52.3,29.81,North,1,0.0,0.0,83,0.00,CLR,OVC,0.00,WeatherDisplay:10.37,2013-01-28 09:04:00,
2013-01-28 03:09:00,57.2,52.1,29.81,North,1,0.0,0.0,83,0.00,CLR,OVC,0.00,WeatherDisplay:10.37,2013-01-28 09:09:00,
2013-01-28 03:14:00,57.2,52.1,29.81,North,1,0.0,0.0,83,0.00,CLR,OVC,0.00,WeatherDisplay:10.37,2013-01-28 09:14:00,
2013-01-28 03:19:00,57.0,51.9,29.81,North,1,0.0,0.0,83,0.00,CLR,OVC,0.00,WeatherDisplay:10.37,2013-01-28 09:19:00,
2013-01-28 03:24:00,57.0,51.9,29.81,North,1,0.0,0.0,83,0.00,CLR,OVC,0.00,WeatherDisplay:10.37,2013-01-28 09:24:00,
2013-01-28 03:29:00,57.0,51.9,29.81,North,1,0.0,0.0,83,0.00,CLR,OVC,0.00,WeatherDisplay:10.37,2013-01-28 09:29:00,
2013-01-28 03:34:00,57.0,51.9,29.81,North,1,0.0,0.0,83,0.00,CLR,OVC,0.00,WeatherDisplay:10.37,2013-01-28 09:34:00,
2013-01-28 03:39:00,57.0,51.9,29.81,North,1,0.0,0.0,83,0.00,CLR,OVC,0.00,WeatherDisplay:10.37,2013-01-28 09:39:00,
2013-01-28 03:44:00,57.0,51.9,29.81,North,1,0.0,0.0,83,0.00,CLR,OVC,0.00,WeatherDisplay:10.37,2013-01-28 09:44:00,
2013-01-28 03:49:00,57.0,51.9,29.81,North,1,0.0,0.0,83,0.00,CLR,OVC,0.00,WeatherDisplay:10.37,2013-01-28 09:49:00,
2013-01-28 03:54:00,57.0,51.9,29.81,North,1,0.0,0.0,83,0.00,CLR,OVC,0.00,WeatherDisplay:10.37,2013-01-28 09:54:00,
2013-01-28 03:59:00,57.0,51.9,29.81,North,1,0.0,0.0,83,0.00,CLR,OVC,0.00,WeatherDisplay:10.37,2013-01-28 09:59:00,
2013-01-28 04:04:00,56.8,51.7,29.81,North,1,0.0,0.0,83,0.00,CLR,OVC,0.00,WeatherDisplay:10.37,2013-01-28 10:04:00,
2013-01-28 04:09:00,56.8,51.7,29.81,North,1,0.0,0.0,83,0.00,CLR,OVC,0.00,WeatherDisplay:10.37,2013-01-28 10:09:00,
2013-01-28 04:14:00,56.8,51.7,29.81,North,1,0.0,0.0,83,0.00,CLR,OVC,0.00,WeatherDisplay:10.37,2013-01-28 10:14:00,
2013-01-28 04:19:00,56.8,51.7,29.81,North,1,0.0,0.0,83,0.00,CLR,OVC,0.00,WeatherDisplay:10.37,2013-01-28 10:19:00,
2013-01-28 04:24:00,56.8,51.7,29.81,North,1,0.0,0.0,83,0.00,CLR,OVC,0.00,WeatherDisplay:10.37,2013-01-28 10:24:00,
2013-01-28 04:29:00,56.8,51.7,29.81,North,1,0.0,0.0,83,0.00,CLR,OVC,0.00,WeatherDisplay:10.37,2013-01-28 10:29:00,
2013-01-28 04:34:00,56.7,51.6,29.82,North,1,0.0,0.0,83,0.00,CLR,OVC,0.00,WeatherDisplay:10.37,2013-01-28 10:34:00,
2013-01-28 04:39:00,56.7,51.6,29.82,North,1,0.0,0.0,83,0.00,CLR,OVC,0.00,WeatherDisplay:10.37,2013-01-28 10:39:00,
2013-01-28 04:44:00,56.7,51.6,29.81,North,1,0.0,0.0,83,0.00,CLR,OVC,0.00,WeatherDisplay:10.37,2013-01-28 10:44:00,
2013-01-28 04:49:00,56.7,51.6,29.81,North,1,0.0,0.0,83,0.00,CLR,OVC,0.00,WeatherDisplay:10.37,2013-01-28 10:49:00,
2013-01-28 04:54:00,56.7,51.6,29.81,North,1,0.0,0.0,83,0.00,CLR,OVC,0.00,WeatherDisplay:10.37,2013-01-28 10:54:00,
2013-01-28 04:59:00,56.8,51.7,29.81,North,1,0.0,0.0,83,0.00,CLR,OVC,0.00,WeatherDisplay:10.37,2013-01-28 10:59:00,
2013-01-28 05:04:00,56.8,51.7,29.81,North,1,0.0,0.0,83,0.00,CLR,OVC,0.00,WeatherDisplay:10.37,2013-01-28 11:04:00,
2013-01-28 05:09:00,56.8,51.7,29.81,North,1,0.0,0.0,83,0.00,CLR,OVC,0.00,WeatherDisplay:10.37,2013-01-28 11:09:00,
2013-01-28 05:14:00,56.8,51.7,29.81,North,1,0.0,0.0,83,0.00,CLR,OVC,0.00,WeatherDisplay:10.37,2013-01-28 11:14:00,
2013-01-28 05:19:00,56.7,51.6,29.81,North,1,0.0,0.0,83,0.00,CLR,OVC,0.00,WeatherDisplay:10.37,2013-01-28 11:19:00,
2013-01-28 05:24:00,56.7,51.6,29.81,North,1,0.0,0.0,83,0.00,CLR,OVC,0.00,WeatherDisplay:10.37,2013-01-28 11:24:00,
2013-01-28 05:29:00,56.7,51.6,29.81,North,1,0.0,0.0,83,0.00,CLR,OVC,0.00,WeatherDisplay:10.37,2013-01-28 11:29:00,
2013-01-28 05:34:00,56.7,51.6,29.81,North,1,0.0,0.0,83,0.00,CLR,OVC,0.00,WeatherDisplay:10.37,2013-01-28 11:34:00,
2013-01-28 05:39:00,56.7,51.6,29.81,North,1,0.0,0.0,83,0.00,CLR,OVC,0.00,WeatherDisplay:10.37,2013-01-28 11:39:00,
2013-01-28 05:44:00,56.7,51.6,29.81,North,1,0.0,0.0,83,0.00,CLR,OVC,0.00,WeatherDisplay:10.37,2013-01-28 11:44:00,
2013-01-28 05:49:00,56.7,51.6,29.81,North,1,0.0,0.0,83,0.00,CLR,OVC,0.00,WeatherDisplay:10.37,2013-01-28 11:49:00,
2013-01-28 05:54:00,56.7,51.6,29.81,North,1,0.0,0.0,83,0.00,CLR,OVC,0.00,WeatherDisplay:10.37,2013-01-28 11:54:00,
2013-01-28 05:59:00,56.5,51.4,29.81,North,1,0.0,0.0,83,0.00,CLR,OVC,0.00,WeatherDisplay:10.37,2013-01-28 11:59:00,
2013-01-28 06:04:00,56.5,51.4,29.81,North,1,0.0,0.0,83,0.00,CLR,OVC,0.00,WeatherDisplay:10.37,2013-01-28 12:04:00,
2013-01-28 06:09:00,56.5,51.7,29.81,North,1,0.0,0.0,84,0.00,CLR,OVC,0.00,WeatherDisplay:10.37,2013-01-28 12:09:00,
2013-01-28 06:14:00,56.5,51.7,29.81,North,1,0.0,0.0,84,0.00,CLR,OVC,0.00,WeatherDisplay:10.37,2013-01-28 12:14:00,
2013-01-28 06:19:00,56.5,51.7,29.81,North,1,0.0,0.0,84,0.00,CLR,OVC,0.00,WeatherDisplay:10.37,2013-01-28 12:19:00,
2013-01-28 06:24:00,56.5,51.7,29.81,North,1,0.0,0.0,84,0.00,CLR,OVC,0.00,WeatherDisplay:10.37,2013-01-28 12:24:00,
2013-01-28 06:29:00,56.5,51.7,29.81,North,1,0.0,0.0,84,0.00,CLR,OVC,0.00,WeatherDisplay:10.37,2013-01-28 12:29:00,
2013-01-28 06:34:00,56.5,51.7,29.82,North,1,0.0,0.0,84,0.00,CLR,OVC,0.00,WeatherDisplay:10.37,2013-01-28 12:34:00,
2013-01-28 06:39:00,56.5,51.7,29.82,North,1,0.0,0.0,84,0.00,CLR,OVC,0.00,WeatherDisplay:10.37,2013-01-28 12:39:00,
2013-01-28 06:44:00,56.3,51.5,29.82,North,1,0.0,0.0,84,0.00,CLR,OVC,0.00,WeatherDisplay:10.37,2013-01-28 12:44:00,
2013-01-28 06:49:00,56.5,51.7,29.82,North,1,0.0,0.0,84,0.00,CLR,OVC,0.00,WeatherDisplay:10.37,2013-01-28 12:49:00,
2013-01-28 06:54:00,56.3,51.5,29.82,North,1,0.0,0.0,84,0.00,CLR,OVC,0.00,WeatherDisplay:10.37,2013-01-28 12:54:00,
2013-01-28 06:59:00,56.3,51.5,29.82,North,1,0.0,0.0,84,0.00,CLR,OVC,0.00,WeatherDisplay:10.37,2013-01-28 12:59:00,
2013-01-28 07:04:00,56.3,51.5,29.82,North,1,0.0,0.0,84,0.00,CLR,OVC,0.00,WeatherDisplay:10.37,2013-01-28 13:04:00,
2013-01-28 07:09:00,56.5,51.7,29.82,North,1,0.0,0.0,84,0.00,CLR,OVC,0.00,WeatherDisplay:10.37,2013-01-28 13:09:00,
2013-01-28 07:14:00,56.5,51.7,29.83,North,1,0.0,0.0,84,0.00,CLR,OVC,0.00,WeatherDisplay:10.37,2013-01-28 13:14:00,
2013-01-28 07:19:00,56.5,51.7,29.83,North,1,0.0,0.0,84,0.00,CLR,OVC,0.00,WeatherDisplay:10.37,2013-01-28 13:19:00,
2013-01-28 07:24:00,56.5,51.7,29.83,North,1,0.0,0.0,84,0.00,CLR,OVC,0.00,WeatherDisplay:10.37,2013-01-28 13:24:00,
2013-01-28 07:29:00,56.7,52.2,29.83,North,1,0.0,0.0,85,0.00,CLR,OVC,0.00,WeatherDisplay:10.37,2013-01-28 13:29:00,
2013-01-28 07:34:00,56.7,52.2,29.83,North,1,0.0,0.0,85,0.00,CLR,OVC,0.00,WeatherDisplay:10.37,2013-01-28 13:34:00,
2013-01-28 07:39:00,56.7,52.2,29.83,North,1,0.0,0.0,85,0.00,CLR,OVC,0.00,WeatherDisplay:10.37,2013-01-28 13:39:00,
2013-01-28 07:44:00,56.5,52.0,29.83,North,1,0.0,0.0,85,0.00,CLR,OVC,0.00,WeatherDisplay:10.37,2013-01-28 13:44:00,
2013-01-28 07:49:00,56.5,52.0,29.83,North,1,0.0,0.0,85,0.00,CLR,OVC,0.00,WeatherDisplay:10.37,2013-01-28 13:49:00,
2013-01-28 07:54:00,56.5,52.0,29.83,North,1,0.0,0.0,85,0.00,CLR,OVC,0.00,WeatherDisplay:10.37,2013-01-28 13:54:00,
2013-01-28 07:59:00,56.5,52.0,29.83,North,1,0.0,0.0,85,0.00,CLR,OVC,0.00,WeatherDisplay:10.37,2013-01-28 13:59:00,
2013-01-28 08:04:00,56.5,52.0,29.84,North,1,0.0,0.0,85,0.00,CLR,OVC,0.00,WeatherDisplay:10.37,2013-01-28 14:04:00,
2013-01-28 08:09:00,56.5,52.0,29.84,North,1,0.0,0.0,85,0.00,CLR,OVC,0.00,WeatherDisplay:10.37,2013-01-28 14:09:00,
2013-01-28 08:14:00,56.5,52.0,29.84,North,1,0.0,0.0,85,0.00,CLR,OVC,0.00,WeatherDisplay:10.37,2013-01-28 14:14:00,
2013-01-28 08:19:00,56.5,52.0,29.84,North,1,0.0,0.0,85,0.00,CLR,OVC,0.00,WeatherDisplay:10.37,2013-01-28 14:19:00,
2013-01-28 08:24:00,56.5,52.0,29.84,North,1,0.0,0.0,85,0.00,CLR,OVC,0.00,WeatherDisplay:10.37,2013-01-28 14:24:00,
2013-01-28 08:29:00,56.5,52.0,29.84,North,1,0.0,0.0,85,0.00,CLR,OVC,0.00,WeatherDisplay:10.37,2013-01-28 14:29:00,
2013-01-28 08:34:00,56.5,52.0,29.84,North,1,0.0,0.0,85,0.00,CLR,OVC,0.00,WeatherDisplay:10.37,2013-01-28 14:34:00,
2013-01-28 08:39:00,56.7,52.2,29.84,North,1,0.0,0.0,85,0.00,CLR,OVC,0.00,WeatherDisplay:10.37,2013-01-28 14:39:00,
2013-01-28 08:44:00,56.7,52.2,29.84,North,1,0.0,0.0,85,0.00,CLR,OVC,0.00,WeatherDisplay:10.37,2013-01-28 14:44:00,
2013-01-28 08:49:00,56.8,52.4,29.84,North,1,0.0,0.0,85,0.00,CLR,OVC,0.00,WeatherDisplay:10.37,2013-01-28 14:49:00,
2013-01-28 08:54:00,57.0,52.6,29.84,North,1,0.0,0.0,85,0.00,CLR,OVC,0.00,WeatherDisplay:10.37,2013-01-28 14:54:00,
2013-01-28 08:59:00,57.0,52.6,29.83,North,1,0.0,0.0,85,0.00,CLR,OVC,0.00,WeatherDisplay:10.37,2013-01-28 14:59:00,
2013-01-28 09:04:00,57.2,52.7,29.84,North,1,0.0,0.0,85,0.00,CLR,OVC,0.00,WeatherDisplay:10.37,2013-01-28 15:04:00,
2013-01-28 09:09:00,57.6,53.1,29.83,North,1,0.0,0.0,85,0.00,CLR,OVC,0.00,WeatherDisplay:10.37,2013-01-28 15:09:00,
2013-01-28 09:14:00,57.7,52.9,29.83,North,1,0.0,0.0,84,0.00,CLR,OVC,0.00,WeatherDisplay:10.37,2013-01-28 15:14:00,
2013-01-28 09:19:00,57.9,53.1,29.83,North,1,0.0,0.0,84,0.00,CLR,OVC,0.00,WeatherDisplay:10.37,2013-01-28 15:19:00,
2013-01-28 09:24:00,57.9,52.8,29.83,North,1,0.0,0.0,83,0.00,CLR,OVC,0.00,WeatherDisplay:10.37,2013-01-28 15:24:00,
2013-01-28 09:29:00,58.1,53.0,29.83,North,1,0.0,0.0,83,0.00,CLR,OVC,0.00,WeatherDisplay:10.37,2013-01-28 15:29:00,
2013-01-28 09:34:00,58.6,53.5,29.83,North,1,0.0,0.0,83,0.00,CLR,OVC,0.00,WeatherDisplay:10.37,2013-01-28 15:34:00,
2013-01-28 09:39:00,59.2,53.7,29.83,North,1,0.0,0.0,82,0.00,CLR,OVC,0.00,WeatherDisplay:10.37,2013-01-28 15:39:00,
2013-01-28 09:44:00,59.7,54.2,29.83,North,1,0.0,0.0,82,0.00,CLR,OVC,0.00,WeatherDisplay:10.37,2013-01-28 15:44:00,
2013-01-28 09:49:00,60.1,54.2,29.83,North,1,0.0,0.0,81,0.00,CLR,OVC,0.00,WeatherDisplay:10.37,2013-01-28 15:49:00,
2013-01-28 09:54:00,60.4,54.2,29.83,North,1,0.0,0.0,80,0.00,CLR,OVC,0.00,WeatherDisplay:10.37,2013-01-28 15:54:00,
2013-01-28 09:59:00,60.6,54.4,29.83,North,1,0.0,0.0,80,0.00,CLR,OVC,0.00,WeatherDisplay:10.37,2013-01-28 15:59:00,
2013-01-28 10:04:00,60.8,54.2,29.82,North,1,0.0,0.0,79,0.00,CLR,OVC,0.00,WeatherDisplay:10.37,2013-01-28 16:04:00,
2013-01-28 10:09:00,62.2,55.3,29.82,North,1,0.0,0.0,78,0.00,CLR,OVC,0.00,WeatherDisplay:10.37,2013-01-28 16:09:00,
2013-01-28 10:14:00,63.1,55.8,29.83,North,1,0.0,0.0,77,0.00,CLR,OVC,0.00,WeatherDisplay:10.37,2013-01-28 16:14:00,
2013-01-28 10:19:00,64.9,57.2,29.83,North,1,0.0,0.0,76,0.00,CLR,OVC,0.00,WeatherDisplay:10.37,2013-01-28 16:19:00,
2013-01-28 10:24:00,65.7,57.1,29.83,North,1,0.0,0.0,74,0.00,CLR,OVC,0.00,WeatherDisplay:10.37,2013-01-28 16:24:00,
2013-01-28 10:29:00,66.7,57.4,29.83,North,1,0.0,0.0,72,0.00,CLR,OVC,0.00,WeatherDisplay:10.37,2013-01-28 16:29:00,
2013-01-28 10:34:00,67.3,57.2,29.83,North,1,0.0,0.0,70,0.00,CLR,OVC,0.00,WeatherDisplay:10.37,2013-01-28 16:34:00,
2013-01-28 10:39:00,67.8,57.7,29.83,North,1,0.0,0.0,70,0.00,CLR,OVC,0.00,WeatherDisplay:10.37,2013-01-28 16:39:00,
2013-01-28 10:44:00,68.7,56.9,29.82,North,1,0.0,0.0,66,0.00,CLR,OVC,0.00,WeatherDisplay:10.37,2013-01-28 16:44:00,
2013-01-28 10:49:00,68.7,56.9,29.82,North,1,0.0,0.0,66,0.00,CLR,OVC,0.00,WeatherDisplay:10.37,2013-01-28 16:49:00,
2013-01-28 10:54:00,69.1,56.4,29.82,North,1,0.0,0.0,64,0.00,CLR,OVC,0.00,WeatherDisplay:10.37,2013-01-28 16:54:00,
2013-01-28 10:59:00,69.4,56.7,29.82,North,1,0.0,0.0,64,0.00,CLR,OVC,0.00,WeatherDisplay:10.37,2013-01-28 16:59:00,
2013-01-28 11:04:00,70.3,57.1,29.82,North,1,0.0,0.0,63,0.00,CLR,OVC,0.00,WeatherDisplay:10.37,2013-01-28 17:04:00,
2013-01-28 11:09:00,70.5,56.9,29.82,North,1,0.0,0.0,62,0.00,CLR,OVC,0.00,WeatherDisplay:10.37,2013-01-28 17:09:00,
2013-01-28 11:14:00,70.9,56.8,29.82,North,1,0.0,0.0,61,0.00,CLR,OVC,0.00,WeatherDisplay:10.37,2013-01-28 17:14:00,
2013-01-28 11:19:00,71.1,56.5,29.82,North,1,0.0,0.0,60,0.00,CLR,OVC,0.00,WeatherDisplay:10.37,2013-01-28 17:19:00,
2013-01-28 11:24:00,71.4,56.8,29.81,North,1,0.0,0.0,60,0.00,CLR,OVC,0.00,WeatherDisplay:10.37,2013-01-28 17:24:00,
2013-01-28 11:29:00,71.4,56.3,29.81,North,1,0.0,0.0,59,0.00,CLR,OVC,0.00,WeatherDisplay:10.37,2013-01-28 17:29:00,
2013-01-28 11:34:00,71.8,56.7,29.81,North,1,0.0,0.0,59,0.00,CLR,OVC,0.00,WeatherDisplay:10.37,2013-01-28 17:34:00,
2013-01-28 11:39:00,71.8,56.2,29.81,North,1,0.0,0.0,58,0.00,CLR,OVC,0.00,WeatherDisplay:10.37,2013-01-28 17:39:00,
2013-01-28 11:44:00,72.1,56.1,29.81,North,1,0.0,0.0,57,0.00,CLR,OVC,0.00,WeatherDisplay:10.37,2013-01-28 17:44:00,
2013-01-28 11:49:00,72.3,56.2,29.80,North,1,0.0,0.0,57,0.00,CLR,OVC,0.00,WeatherDisplay:10.37,2013-01-28 17:49:00,
2013-01-28 11:54:00,72.7,56.1,29.80,North,1,0.0,0.0,56,0.00,CLR,OVC,0.00,WeatherDisplay:10.37,2013-01-28 17:54:00,
2013-01-28 11:59:00,72.9,56.2,29.80,North,1,0.0,0.0,56,0.00,CLR,OVC,0.00,WeatherDisplay:10.37,2013-01-28 17:59:00,
2013-01-28 12:04:00,73.0,55.9,29.80,North,1,0.0,0.0,55,0.00,CLR,OVC,0.00,WeatherDisplay:10.37,2013-01-28 18:04:00,
2013-01-28 12:09:00,73.2,56.1,29.80,North,1,0.0,0.0,55,0.00,CLR,OVC,0.00,WeatherDisplay:10.37,2013-01-28 18:09:00,
2013-01-28 12:14:00,73.6,55.9,29.79,North,1,0.0,0.0,54,0.00,CLR,OVC,0.00,WeatherDisplay:10.37,2013-01-28 18:14:00,
2013-01-28 12:19:00,73.9,56.2,29.78,North,1,0.0,0.0,54,0.00,CLR,OVC,0.00,WeatherDisplay:10.37,2013-01-28 18:19:00,
2013-01-28 12:24:00,73.9,55.7,29.77,North,1,0.0,0.0,53,0.00,CLR,OVC,0.00,WeatherDisplay:10.37,2013-01-28 18:24:00,
2013-01-28 12:29:00,73.9,55.7,29.77,North,1,0.0,0.0,53,0.00,CLR,OVC,0.00,WeatherDisplay:10.37,2013-01-28 18:29:00,
2013-01-28 12:34:00,73.9,55.7,29.77,North,1,0.0,0.0,53,0.00,CLR,OVC,0.00,WeatherDisplay:10.37,2013-01-28 18:34:00,
2013-01-28 12:39:00,73.8,55.6,29.77,North,1,0.0,0.0,53,0.00,CLR,OVC,0.00,WeatherDisplay:10.37,2013-01-28 18:39:00,
2013-01-28 12:44:00,73.4,55.2,29.77,North,1,0.0,0.0,53,0.00,CLR,OVC,0.00,WeatherDisplay:10.37,2013-01-28 18:44:00,
2013-01-28 12:49:00,73.0,54.9,29.76,North,1,0.0,0.0,53,0.00,CLR,OVC,0.00,WeatherDisplay:10.37,2013-01-28 18:49:00,
2013-01-28 12:54:00,73.0,54.9,29.76,North,1,0.0,0.0,53,0.00,CLR,OVC,0.00,WeatherDisplay:10.37,2013-01-28 18:54:00,
2013-01-28 12:59:00,73.0,54.9,29.76,North,1,0.0,0.0,53,0.00,CLR,OVC,0.00,WeatherDisplay:10.37,2013-01-28 18:59:00,
2013-01-28 13:04:00,73.2,55.1,29.76,North,1,0.0,0.0,53,0.00,CLR,OVC,0.00,WeatherDisplay:10.37,2013-01-28 19:04:00,
2013-01-28 13:09:00,73.2,54.5,29.75,North,1,0.0,0.0,52,0.00,CLR,OVC,0.00,WeatherDisplay:10.37,2013-01-28 19:09:00,
2013-01-28 13:14:00,73.2,54.5,29.75,North,1,0.0,0.0,52,0.00,CLR,OVC,0.00,WeatherDisplay:10.37,2013-01-28 19:14:00,
2013-01-28 13:19:00,73.2,54.5,29.75,North,1,0.0,0.0,52,0.00,CLR,OVC,0.00,WeatherDisplay:10.37,2013-01-28 19:19:00,
2013-01-28 13:24:00,73.2,54.5,29.75,North,1,0.0,0.0,52,0.00,CLR,OVC,0.00,WeatherDisplay:10.37,2013-01-28 19:24:00,
2013-01-28 13:29:00,73.0,54.9,29.75,North,1,0.0,0.0,53,0.00,CLR,OVC,0.00,WeatherDisplay:10.37,2013-01-28 19:29:00,
2013-01-28 13:34:00,72.7,54.6,29.74,North,1,0.0,0.0,53,0.00,CLR,OVC,0.00,WeatherDisplay:10.37,2013-01-28 19:34:00,
2013-01-28 13:39:00,72.7,55.1,29.74,North,1,0.0,0.0,54,0.00,CLR,OVC,0.00,WeatherDisplay:10.37,2013-01-28 19:39:00,
2013-01-28 13:44:00,72.7,55.1,29.74,North,1,0.0,0.0,54,0.00,CLR,OVC,0.00,WeatherDisplay:10.37,2013-01-28 19:44:00,
2013-01-28 13:49:00,72.5,55.4,29.74,North,1,0.0,0.0,55,0.00,CLR,OVC,0.00,WeatherDisplay:10.37,2013-01-28 19:49:00,
2013-01-28 13:54:00,72.7,55.6,29.73,North,1,0.0,0.0,55,0.00,CLR,OVC,0.00,WeatherDisplay:10.37,2013-01-28 19:54:00,
2013-01-28 13:59:00,72.7,55.6,29.73,North,1,0.0,0.0,55,0.00,CLR,OVC,0.00,WeatherDisplay:10.37,2013-01-28 19:59:00,
2013-01-28 14:04:00,72.3,55.2,29.73,North,1,0.0,0.0,55,0.00,CLR,OVC,0.00,WeatherDisplay:10.37,2013-01-28 20:04:00,
2013-01-28 14:09:00,72.7,56.1,29.73,North,1,0.0,0.0,56,0.00,CLR,OVC,0.00,WeatherDisplay:10.37,2013-01-28 20:09:00,
2013-01-28 14:14:00,72.9,56.2,29.73,North,1,0.0,0.0,56,0.00,CLR,OVC,0.00,WeatherDisplay:10.37,2013-01-28 20:14:00,
2013-01-28 14:19:00,73.0,55.9,29.72,North,1,0.0,0.0,55,0.00,CLR,OVC,0.00,WeatherDisplay:10.37,2013-01-28 20:19:00,
2013-01-28 14:24:00,73.0,56.4,29.73,North,1,0.0,0.0,56,0.00,CLR,OVC,0.00,WeatherDisplay:10.37,2013-01-28 20:24:00,
2013-01-28 14:29:00,73.0,55.9,29.73,North,1,0.0,0.0,55,0.00,CLR,OVC,0.00,WeatherDisplay:10.37,2013-01-28 20:29:00,
2013-01-28 14:34:00,72.7,55.6,29.72,North,1,0.0,0.0,55,0.00,CLR,OVC,0.00,WeatherDisplay:10.37,2013-01-28 20:34:00,
2013-01-28 14:39:00,72.7,55.6,29.73,North,1,0.0,0.0,55,0.00,CLR,OVC,0.00,WeatherDisplay:10.37,2013-01-28 20:39:00,
2013-01-28 14:44:00,72.3,55.7,29.73,North,1,0.0,0.0,56,0.00,CLR,OVC,0.00,WeatherDisplay:10.37,2013-01-28 20:44:00,
2013-01-28 14:49:00,72.5,55.9,29.72,North,1,0.0,0.0,56,0.00,CLR,OVC,0.00,WeatherDisplay:10.37,2013-01-28 20:49:00,
2013-01-28 14:54:00,72.3,55.7,29.72,North,1,0.0,0.0,56,0.00,CLR,OVC,0.00,WeatherDisplay:10.37,2013-01-28 20:54:00,
2013-01-28 14:59:00,72.3,55.7,29.72,North,1,0.0,0.0,56,0.00,CLR,OVC,0.00,WeatherDisplay:10.37,2013-01-28 20:59:00,
2013-01-28 15:04:00,72.1,56.1,29.72,North,1,0.0,0.0,57,0.00,CLR,OVC,0.00,WeatherDisplay:10.37,2013-01-28 21:04:00,
2013-01-28 15:09:00,71.8,55.7,29.72,North,1,0.0,0.0,57,0.00,CLR,OVC,0.00,WeatherDisplay:10.37,2013-01-28 21:09:00,
2013-01-28 15:14:00,71.6,56.0,29.72,North,1,0.0,0.0,58,0.00,CLR,OVC,0.00,WeatherDisplay:10.37,2013-01-28 21:14:00,
2013-01-28 15:19:00,71.4,56.3,29.72,North,1,0.0,0.0,59,0.00,CLR,OVC,0.00,WeatherDisplay:10.37,2013-01-28 21:19:00,
2013-01-28 15:24:00,71.4,56.3,29.72,North,1,0.0,0.0,59,0.00,CLR,OVC,0.00,WeatherDisplay:10.37,2013-01-28 21:24:00,
2013-01-28 15:29:00,71.2,56.2,29.72,North,1,0.0,0.0,59,0.00,CLR,OVC,0.00,WeatherDisplay:10.37,2013-01-28 21:29:00,
2013-01-28 15:34:00,71.2,56.2,29.71,North,1,0.0,0.0,59,0.00,CLR,OVC,0.00,WeatherDisplay:10.37,2013-01-28 21:34:00,
2013-01-28 15:39:00,71.2,56.2,29.71,North,1,0.0,0.0,59,0.00,CLR,OVC,0.00,WeatherDisplay:10.37,2013-01-28 21:39:00,
2013-01-28 15:44:00,71.4,56.3,29.71,North,1,0.0,0.0,59,0.00,CLR,OVC,0.00,WeatherDisplay:10.37,2013-01-28 21:44:00,
2013-01-28 15:49:00,71.4,55.9,29.71,North,1,0.0,0.0,58,0.00,CLR,OVC,0.00,WeatherDisplay:10.37,2013-01-28 21:49:00,
2013-01-28 15:54:00,71.4,55.9,29.70,North,1,0.0,0.0,58,0.00,CLR,OVC,0.00,WeatherDisplay:10.37,2013-01-28 21:54:00,
2013-01-28 15:59:00,71.4,56.3,29.70,North,1,0.0,0.0,59,0.00,CLR,OVC,0.00,WeatherDisplay:10.37,2013-01-28 21:59:00,
2013-01-28 16:04:00,71.2,56.2,29.71,North,1,0.0,0.0,59,0.00,CLR,OVC,0.00,WeatherDisplay:10.37,2013-01-28 22:04:00,
2013-01-28 16:09:00,71.1,56.5,29.71,North,1,0.0,0.0,60,0.00,CLR,OVC,0.00,WeatherDisplay:10.37,2013-01-28 22:09:00,
2013-01-28 16:14:00,71.1,56.9,29.71,North,1,0.0,0.0,61,0.00,CLR,OVC,0.00,WeatherDisplay:10.37,2013-01-28 22:14:00,
2013-01-28 16:19:00,70.9,56.8,29.71,North,1,0.0,0.0,61,0.00,CLR,OVC,0.00,WeatherDisplay:10.37,2013-01-28 22:19:00,
2013-01-28 16:24:00,70.5,56.9,29.70,North,1,0.0,0.0,62,0.00,CLR,OVC,0.00,WeatherDisplay:10.37,2013-01-28 22:24:00,
2013-01-28 16:29:00,70.3,56.7,29.70,North,1,0.0,0.0,62,0.00,CLR,OVC,0.00,WeatherDisplay:10.37,2013-01-28 22:29:00,
2013-01-28 16:34:00,70.0,56.4,29.70,North,1,0.0,0.0,62,0.00,CLR,OVC,0.00,WeatherDisplay:10.37,2013-01-28 22:34:00,
2013-01-28 16:39:00,70.0,56.8,29.70,North,1,0.0,0.0,63,0.00,CLR,OVC,0.00,WeatherDisplay:10.37,2013-01-28 22:39:00,
2013-01-28 16:44:00,69.8,56.6,29.69,North,1,0.0,0.0,63,0.00,CLR,OVC,0.00,WeatherDisplay:10.37,2013-01-28 22:44:00,
2013-01-28 16:49:00,69.4,56.3,29.70,North,1,0.0,0.0,63,0.00,CLR,OVC,0.00,WeatherDisplay:10.37,2013-01-28 22:49:00,
2013-01-28 16:54:00,69.3,56.6,29.69,North,1,0.0,0.0,64,0.00,CLR,OVC,0.00,WeatherDisplay:10.37,2013-01-28 22:54:00,
2013-01-28 16:59:00,69.3,56.6,29.69,North,1,0.0,0.0,64,0.00,CLR,OVC,0.00,WeatherDisplay:10.37,2013-01-28 22:59:00,
2013-01-28 17:04:00,69.1,56.4,29.69,North,1,0.0,0.0,64,0.00,CLR,OVC,0.00,WeatherDisplay:10.37,2013-01-28 23:04:00,
2013-01-28 17:09:00,68.7,56.5,29.69,North,1,0.0,0.0,65,0.00,CLR,OVC,0.00,WeatherDisplay:10.37,2013-01-28 23:09:00,
2013-01-28 17:14:00,68.7,56.5,29.69,North,1,0.0,0.0,65,0.00,CLR,OVC,0.00,WeatherDisplay:10.37,2013-01-28 23:14:00,
2013-01-28 17:19:00,68.4,56.1,29.69,North,1,0.0,0.0,65,0.00,CLR,OVC,0.00,WeatherDisplay:10.37,2013-01-28 23:19:00,
2013-01-28 17:24:00,68.0,56.2,29.69,North,1,0.0,0.0,66,0.00,CLR,OVC,0.00,WeatherDisplay:10.37,2013-01-28 23:24:00,
2013-01-28 17:29:00,68.0,56.2,29.69,North,1,0.0,0.0,66,0.00,CLR,OVC,0.00,WeatherDisplay:10.37,2013-01-28 23:29:00,
2013-01-28 17:34:00,67.6,56.3,29.69,North,1,0.0,0.0,67,0.00,CLR,OVC,0.00,WeatherDisplay:10.37,2013-01-28 23:34:00,
2013-01-28 17:39:00,67.5,56.1,29.68,North,1,0.0,0.0,67,0.00,CLR,OVC,0.00,WeatherDisplay:10.37,2013-01-28 23:39:00,
2013-01-28 17:44:00,67.1,55.8,29.68,North,1,0.0,0.0,67,0.00,CLR,OVC,0.00,WeatherDisplay:10.37,2013-01-28 23:44:00,
2013-01-28 17:49:00,66.9,56.0,29.68,North,1,0.0,0.0,68,0.00,CLR,OVC,0.00,WeatherDisplay:10.37,2013-01-28 23:49:00,
2013-01-28 17:54:00,66.9,56.0,29.68,North,1,0.0,0.0,68,0.00,CLR,OVC,0.00,WeatherDisplay:10.37,2013-01-28 23:54:00,
2013-01-28 17:59:00,66.9,56.0,29.68,North,1,0.0,0.0,68,0.00,CLR,OVC,0.00,WeatherDisplay:10.37,2013-01-28 23:59:00,
2013-01-28 18:04:00,66.7,55.8,29.68,North,1,0.0,0.0,68,0.00,CLR,OVC,0.00,WeatherDisplay:10.37,2013-01-29 00:04:00,
2013-01-28 18:09:00,66.6,55.7,29.68,North,1,0.0,0.0,68,0.00,CLR,OVC,0.00,WeatherDisplay:10.37,2013-01-29 00:09:00,
2013-01-28 18:14:00,66.4,55.5,29.68,North,1,0.0,0.0,68,0.00,CLR,OVC,0.00,WeatherDisplay:10.37,2013-01-29 00:14:00,
2013-01-28 18:19:00,66.2,55.7,29.68,North,1,0.0,0.0,69,0.00,CLR,OVC,0.00,WeatherDisplay:10.37,2013-01-29 00:19:00,
2013-01-28 18:24:00,66.2,55.7,29.68,North,1,0.0,0.0,69,0.00,CLR,OVC,0.00,WeatherDisplay:10.37,2013-01-29 00:24:00,
2013-01-28 18:29:00,66.0,55.6,29.68,North,1,0.0,0.0,69,0.00,CLR,OVC,0.00,WeatherDisplay:10.37,2013-01-29 00:29:00,
2013-01-28 18:34:00,66.0,55.6,29.68,North,1,0.0,0.0,69,0.00,CLR,OVC,0.00,WeatherDisplay:10.37,2013-01-29 00:34:00,
2013-01-28 18:39:00,65.8,55.4,29.68,North,1,0.0,0.0,69,0.00,CLR,OVC,0.00,WeatherDisplay:10.37,2013-01-29 00:39:00,
2013-01-28 18:44:00,66.0,56.0,29.68,North,1,0.0,0.0,70,0.00,CLR,OVC,0.00,WeatherDisplay:10.37,2013-01-29 00:44:00,
2013-01-28 18:49:00,66.0,56.0,29.68,North,1,0.0,0.0,70,0.00,CLR,OVC,0.00,WeatherDisplay:10.37,2013-01-29 00:49:00,
2013-01-28 18:54:00,66.0,56.0,29.68,North,1,0.0,0.0,70,0.00,CLR,OVC,0.00,WeatherDisplay:10.37,2013-01-29 00:54:00,
2013-01-28 18:59:00,66.0,56.0,29.68,North,1,0.0,0.0,70,0.00,CLR,OVC,0.00,WeatherDisplay:10.37,2013-01-29 00:59:00,
2013-01-28 19:04:00,66.0,56.0,29.68,North,1,0.0,0.0,70,0.00,CLR,OVC,0.00,WeatherDisplay:10.37,2013-01-29 01:04:00,
2013-01-28 19:09:00,66.0,56.0,29.68,North,1,0.0,0.0,70,0.00,CLR,OVC,0.00,WeatherDisplay:10.37,2013-01-29 01:09:00,
2013-01-28 19:14:00,65.8,56.2,29.68,North,1,0.0,0.0,71,0.00,CLR,OVC,0.00,WeatherDisplay:10.37,2013-01-29 01:14:00,
2013-01-28 19:19:00,65.5,55.8,29.68,North,1,0.0,0.0,71,0.00,CLR,OVC,0.00,WeatherDisplay:10.37,2013-01-29 01:19:00,
2013-01-28 19:24:00,65.3,55.7,29.68,North,1,0.0,0.0,71,0.00,CLR,OVC,0.00,WeatherDisplay:10.37,2013-01-29 01:24:00,
2013-01-28 19:29:00,65.1,55.9,29.68,North,1,0.0,0.0,72,0.00,CLR,OVC,0.00,WeatherDisplay:10.37,2013-01-29 01:29:00,
2013-01-28 19:34:00,65.1,55.9,29.68,North,1,0.0,0.0,72,0.00,CLR,OVC,0.00,WeatherDisplay:10.37,2013-01-29 01:34:00,
2013-01-28 19:39:00,64.9,55.7,29.68,North,1,0.0,0.0,72,0.00,CLR,OVC,0.00,WeatherDisplay:10.37,2013-01-29 01:39:00,
2013-01-28 19:44:00,64.9,56.1,29.68,North,1,0.0,0.0,73,0.00,CLR,OVC,0.00,WeatherDisplay:10.37,2013-01-29 01:44:00,
2013-01-28 19:49:00,64.6,55.7,29.69,North,1,0.0,0.0,73,0.00,CLR,OVC,0.00,WeatherDisplay:10.37,2013-01-29 01:49:00,
2013-01-28 19:54:00,64.6,56.1,29.69,North,1,0.0,0.0,74,0.00,CLR,OVC,0.00,WeatherDisplay:10.37,2013-01-29 01:54:00,
2013-01-28 19:59:00,64.4,55.9,29.69,North,1,0.0,0.0,74,0.00,CLR,OVC,0.00,WeatherDisplay:10.37,2013-01-29 01:59:00,
2013-01-28 20:04:00,64.4,55.9,29.69,North,1,0.0,0.0,74,0.00,CLR,OVC,0.00,WeatherDisplay:10.37,2013-01-29 02:04:00,
2013-01-28 20:09:00,64.2,55.8,29.69,North,1,0.0,0.0,74,0.00,CLR,OVC,0.00,WeatherDisplay:10.37,2013-01-29 02:09:00,
2013-01-28 20:14:00,64.2,55.8,29.69,North,1,0.0,0.0,74,0.00,CLR,OVC,0.00,WeatherDisplay:10.37,2013-01-29 02:14:00,
2013-01-28 20:19:00,64.0,55.6,29.69,North,1,0.0,0.0,74,0.00,CLR,OVC,0.00,WeatherDisplay:10.37,2013-01-29 02:19:00,
2013-01-28 20:24:00,64.0,55.6,29.69,North,1,0.0,0.0,74,0.00,CLR,OVC,0.00,WeatherDisplay:10.37,2013-01-29 02:24:00,
2013-01-28 20:29:00,64.0,55.6,29.69,North,1,0.0,0.0,74,0.00,CLR,OVC,0.00,WeatherDisplay:10.37,2013-01-29 02:29:00,
2013-01-28 20:34:00,63.7,55.6,29.69,North,1,0.0,0.0,75,0.00,CLR,OVC,0.00,WeatherDisplay:10.37,2013-01-29 02:34:00,
2013-01-28 20:39:00,63.7,55.6,29.69,North,1,0.0,0.0,75,0.00,CLR,OVC,0.00,WeatherDisplay:10.37,2013-01-29 02:39:00,
2013-01-28 20:44:00,63.7,56.0,29.69,North,1,0.0,0.0,76,0.00,CLR,OVC,0.00,WeatherDisplay:10.37,2013-01-29 02:44:00,
2013-01-28 20:49:00,63.7,56.0,29.69,North,1,0.0,0.0,76,0.00,CLR,OVC,0.00,WeatherDisplay:10.37,2013-01-29 02:49:00,
2013-01-28 20:54:00,63.9,56.1,29.69,North,1,0.0,0.0,76,0.00,CLR,OVC,0.00,WeatherDisplay:10.37,2013-01-29 02:54:00,
2013-01-28 20:59:00,63.9,56.1,29.69,North,1,0.0,0.0,76,0.00,CLR,OVC,0.00,WeatherDisplay:10.37,2013-01-29 02:59:00,
2013-01-28 21:04:00,64.0,56.3,29.70,North,1,0.0,0.0,76,0.00,CLR,OVC,0.00,WeatherDisplay:10.37,2013-01-29 03:04:00,
2013-01-28 21:09:00,64.0,56.3,29.69,North,1,0.0,0.0,76,0.00,CLR,OVC,0.00,WeatherDisplay:10.37,2013-01-29 03:09:00,
2013-01-28 21:14:00,64.2,56.9,29.69,North,1,0.0,0.0,77,0.00,CLR,OVC,0.00,WeatherDisplay:10.37,2013-01-29 03:14:00,
2013-01-28 21:19:00,64.2,56.9,29.69,North,1,0.0,0.0,77,0.00,CLR,OVC,0.00,WeatherDisplay:10.37,2013-01-29 03:19:00,
2013-01-28 21:24:00,64.4,57.0,29.69,North,1,0.0,0.0,77,0.00,CLR,OVC,0.00,WeatherDisplay:10.37,2013-01-29 03:24:00,
2013-01-28 21:29:00,64.4,57.0,29.69,North,1,0.0,0.0,77,0.00,CLR,OVC,0.00,WeatherDisplay:10.37,2013-01-29 03:29:00,
2013-01-28 21:34:00,64.4,57.0,29.70,North,1,0.0,0.0,77,0.00,CLR,OVC,0.00,WeatherDisplay:10.37,2013-01-29 03:34:00,
2013-01-28 21:39:00,64.6,57.2,29.70,North,1,0.0,0.0,77,0.00,CLR,OVC,0.00,WeatherDisplay:10.37,2013-01-29 03:39:00,
2013-01-28 21:44:00,64.6,57.2,29.69,North,1,0.0,0.0,77,0.00,CLR,OVC,0.00,WeatherDisplay:10.37,2013-01-29 03:44:00,
2013-01-28 21:49:00,64.6,57.2,29.69,North,1,0.0,0.0,77,0.00,CLR,OVC,0.00,WeatherDisplay:10.37,2013-01-29 03:49:00,
2013-01-28 21:54:00,64.6,57.2,29.69,North,1,0.0,0.0,77,0.00,CLR,OVC,0.00,WeatherDisplay:10.37,2013-01-29 03:54:00,
2013-01-28 21:59:00,64.6,57.2,29.69,North,1,0.0,0.0,77,0.00,CLR,OVC,0.00,WeatherDisplay:10.37,2013-01-29 03:59:00,
2013-01-28 22:04:00,64.6,57.2,29.69,North,1,0.0,0.0,77,0.00,CLR,OVC,0.00,WeatherDisplay:10.37,2013-01-29 04:04:00,
2013-01-28 22:09:00,64.6,57.2,29.69,North,1,0.0,0.0,77,0.00,CLR,OVC,0.00,WeatherDisplay:10.37,2013-01-29 04:09:00,
2013-01-28 22:14:00,64.6,57.2,29.68,North,1,0.0,0.0,77,0.00,CLR,OVC,0.00,WeatherDisplay:10.37,2013-01-29 04:14:00,
2013-01-28 22:19:00,64.6,57.2,29.68,North,1,0.0,0.0,77,0.00,CLR,OVC,0.00,WeatherDisplay:10.37,2013-01-29 04:19:00,
2013-01-28 22:24:00,64.4,57.0,29.68,North,1,0.0,0.0,77,0.00,CLR,OVC,0.00,WeatherDisplay:10.37,2013-01-29 04:24:00,
2013-01-28 22:29:00,64.4,57.0,29.68,North,1,0.0,0.0,77,0.00,CLR,OVC,0.00,WeatherDisplay:10.37,2013-01-29 04:29:00,
2013-01-28 22:34:00,64.4,57.4,29.68,North,1,0.0,0.0,78,0.00,CLR,OVC,0.00,WeatherDisplay:10.37,2013-01-29 04:34:00,
2013-01-28 22:39:00,64.6,57.6,29.67,North,1,0.0,0.0,78,0.00,CLR,OVC,0.00,WeatherDisplay:10.37,2013-01-29 04:39:00,
2013-01-28 22:44:00,64.6,57.6,29.68,North,1,0.0,0.0,78,0.00,CLR,OVC,0.00,WeatherDisplay:10.37,2013-01-29 04:44:00,
2013-01-28 22:49:00,64.4,57.4,29.67,North,1,0.0,0.0,78,0.00,CLR,OVC,0.00,WeatherDisplay:10.37,2013-01-29 04:49:00,
2013-01-28 22:54:00,64.4,57.4,29.67,North,1,0.0,0.0,78,0.00,CLR,OVC,0.00,WeatherDisplay:10.37,2013-01-29 04:54:00,
2013-01-28 22:59:00,64.4,57.4,29.67,North,1,0.0,0.0,78,0.00,CLR,OVC,0.00,WeatherDisplay:10.37,2013-01-29 04:59:00,
2013-01-28 23:01:00,64.4,57.4,29.67,North,1,0.0,0.0,78,0.00,CLR,OVC,0.00,WeatherDisplay:10.37,2013-01-29 05:01:00,
2013-01-28 23:02:00,64.4,57.4,29.68,North,1,0.0,0.0,78,0.00,CLR,OVC,0.00,WeatherDisplay:10.37,2013-01-29 05:02:00,
2013-01-28 23:03:00,64.4,57.4,29.67,North,1,0.0,0.0,78,0.00,CLR,OVC,0.00,WeatherDisplay:10.37,2013-01-29 05:03:00,
2013-01-28 23:08:00,64.4,57.4,29.67,North,1,0.0,0.0,78,0.00,CLR,OVC,0.00,WeatherDisplay:10.37,2013-01-29 05:08:00,
2013-01-28 23:13:00,64.4,57.7,29.67,North,1,0.0,0.0,79,0.00,CLR,OVC,0.00,WeatherDisplay:10.37,2013-01-29 05:13:00,
2013-01-28 23:18:00,64.2,57.6,29.67,North,1,0.0,0.0,79,0.00,CLR,OVC,0.00,WeatherDisplay:10.37,2013-01-29 05:18:00,
2013-01-28 23:23:00,64.2,57.6,29.66,North,1,0.0,0.0,79,0.00,CLR,OVC,0.00,WeatherDisplay:10.37,2013-01-29 05:23:00,
2013-01-28 23:28:00,64.2,57.6,29.66,North,1,0.0,0.0,79,0.00,CLR,OVC,0.00,WeatherDisplay:10.37,2013-01-29 05:28:00,
2013-01-28 23:33:00,64.2,57.6,29.67,North,1,0.0,0.0,79,0.00,CLR,OVC,0.00,WeatherDisplay:10.37,2013-01-29 05:33:00,
2013-01-28 23:38:00,64.2,57.6,29.67,North,1,0.0,0.0,79,0.00,CLR,OVC,0.00,WeatherDisplay:10.37,2013-01-29 05:38:00,
2013-01-28 23:43:00,64.2,57.6,29.66,North,1,0.0,0.0,79,0.00,CLR,OVC,0.00,WeatherDisplay:10.37,2013-01-29 05:43:00,
2013-01-28 23:48:00,64.2,57.6,29.66,North,1,0.0,0.0,79,0.00,CLR,OVC,0.00,WeatherDisplay:10.37,2013-01-29 05:48:00,
2013-01-28 23:53:00,64.0,57.4,29.65,North,1,0.0,0.0,79,0.00,CLR,OVC,0.00,WeatherDisplay:10.37,2013-01-29 05:53:00,
2013-01-28 23:58:00,64.0,57.4,29.65,North,1,0.0,0.0,79,0.00,CLR,OVC,0.00,WeatherDisplay:10.37,2013-01-29 05:58:00,